STARLINK-38036, 69756

Orbit data source: Space-Track

STARLINK-38036, 69756 is a payload satellite owned by SpaceX/Seattle (US) in SSO that was launched on Thu, 02 Jul 2026 UTC via an FALCON 9 launch vehicle from the Air Force Western Test Range (AFWTR). Payload-class satellites include a variety of spacecraft equipped with specific instruments for various scientific and technological missions. These include communications satellites like Starlink; space stations such as the ISS; scientific satellites like the Hubble; Earth observation satellites from companies like Planet Labs, Umbra, and HawkEye 360; GPS; miniature CubeSats for education and research; and military/defense satellites.

Loading next visibility...
Identifier
69756, 2026-150T
Orbit
SSO
Country
Flag of USUS
Related business
Manufacturer
SpaceX/Seattle
Mission
Operational spacecraft
Bus & Motor
STARLINK V2MO, Unknown motor
Mass
575 kg wet, ~530 kg dry
Launch date (UTC)
2026-07-02 (3 weeks ago)
Launch vehicle
FALCON 9
Launch site
Air Force Western Test Range (AFWTR)
Object type
Payload
Rocket body
Debris
Shape & HBR
Unknown shape, 17.7 m
Radar Cross Section
Large (>1 m²)

Expand to show TLE details & history
Last TLE update: 16 hours ago

TLE from 16 hours ago
0 STARLINK-38036
1 69756U 26150T   26202.53925202  .00304608  00000-0  19614-2 0  9991
2 69756  97.2855  41.2742 0000973 139.9870 220.1467 15.75303792  4320
Epoch: 2026-07-21T12:56Z
TLE epoch observation values (Epoch: 2026-07-21T12:56:31.374Z)
Latitude
-0.00004°
Longitude
-92.16401°
Altitude
347.435 km
Speed
7.7 km/s
True Right ascension
02h 45m 05s
True Declination
0° 00' 00"
Sunlit
Object was in daylight at epoch
Visualization orbit readout
Latitude
Unknown
Longitude
Unknown
Altitude
Unknown
Speed
Unknown
Apparent Right ascension
Unknown
Apparent Declination
Unknown
Sunlit
N/A
Visualization observer readout
Local Sidereal Time
17:45:07
Azimuth
Unknown
Elevation
Unknown
Doppler factor
Unknown
Orbital elements
Apogee altitude
341.308 km
Perigee altitude
340 km
Semi-major axis
6,718.791 km
Eccentricity
0.0001
Inclination
97.2855°
RAAN
41.2742°
Arg. of periapsis
139.987°
True anomaly
220.13951°
Mean anomaly
220.1467°
Eccentric anomaly
220.14311°
Mean motion
3.941 °/min
Orbital period
91.35 mins
BSTAR
0.0019614
Loading maneuver chart data...
Computing Atmospheric mass density...
Loading historical data...
Loading historical data...
Loading historical data...
Loading historical data...
Loading historical data...
Loading historical data...
Loading historical data...

Documentation

Showing up to 5 results
|